Location: Unspecified
(0.0000°N, 0.0000°E)
Time: 09:42:21
(UTC+02:00)

PROBA 2 - Visible Passes

Search period start: 27 May 2015 00:00
Search period end: 06 June 2015 00:00
Orbit: 706 x 726 km, 98.3° (Epoch: 26 May)

Date Brightness Start Highest point End Pass type
(mag) Time Alt. Az. Time Alt. Az. Time Alt. Az.
27 May ? 20:36:21 10° N 20:41:00 54° WNW 20:45:41 10° SSW visible
28 May ? 07:23:54 10° ESE 07:26:42 16° E 07:29:46 10° NE visible
28 May ? 21:25:43 10° NW 21:28:05 13° W 21:30:08 10° WSW visible
29 May ? 20:32:24 10° N 20:37:07 61° WNW 20:41:51 10° SSW visible
30 May ? 07:20:25 10° ESE 07:22:48 14° E 07:25:29 10° NE visible
30 May ? 21:21:22 10° NW 21:24:10 15° W 21:26:42 10° WSW visible
31 May ? 20:28:27 10° N 20:33:13 69° WNW 20:38:01 10° SSW visible
01 Jun ? 07:17:03 10° ESE 07:18:53 12° E 07:21:05 10° NE visible
01 Jun ? 21:17:07 10° NW 21:20:16 17° W 21:23:11 10° WSW visible
02 Jun ? 20:24:32 10° N 20:29:19 78° WNW 20:34:09 10° SSW visible
03 Jun ? 07:13:55 10° E 07:14:58 11° E 07:16:26 10° ENE visible
03 Jun ? 21:12:55 10° NNW 21:16:21 19° W 21:19:36 10° WSW visible
04 Jun ? 20:20:37 10° NNE 20:25:25 88° WNW 20:30:16 10° SSW visible
05 Jun ? 21:08:46 10° NNW 21:12:27 21° W 21:15:58 10° SW visible
